,Coso Junction,Coso Junction
,PM10_1HR,PM10_1HR
,,
Date,Value,Null Code
01-Jul-2018 00:00,14.3,
01-Jul-2018 01:00,17.7,
01-Jul-2018 02:00,18.3,
01-Jul-2018 03:00,15.4,
01-Jul-2018 04:00,13.9,
01-Jul-2018 05:00,11.1,
01-Jul-2018 06:00,14.9,
01-Jul-2018 07:00,26.4,
01-Jul-2018 08:00,19.8,
01-Jul-2018 09:00,14.7,
01-Jul-2018 10:00,11.1,
01-Jul-2018 11:00,26.2,
01-Jul-2018 12:00,15.8,
01-Jul-2018 13:00,16.1,
01-Jul-2018 14:00,17,
01-Jul-2018 15:00,16,
01-Jul-2018 16:00,14.6,
01-Jul-2018 17:00,21.9,
01-Jul-2018 18:00,18.2,
01-Jul-2018 19:00,29.3,
01-Jul-2018 20:00,24.9,
01-Jul-2018 21:00,30.9,
01-Jul-2018 22:00,32.1,
01-Jul-2018 23:00,28.4,
02-Jul-2018 00:00,35.4,
02-Jul-2018 01:00,31.4,
02-Jul-2018 02:00,28.6,
02-Jul-2018 03:00,28.4,
02-Jul-2018 04:00,27,
02-Jul-2018 05:00,28.3,
02-Jul-2018 06:00,26.6,
02-Jul-2018 07:00,24.5,
02-Jul-2018 08:00,22.5,
02-Jul-2018 09:00,25.8,
02-Jul-2018 10:00,27.5,
02-Jul-2018 11:00,11.3,
02-Jul-2018 12:00,6,
02-Jul-2018 13:00,14.5,
02-Jul-2018 14:00,28.4,
02-Jul-2018 15:00,27,
02-Jul-2018 16:00,19.9,
02-Jul-2018 17:00,29,
02-Jul-2018 18:00,30.1,
02-Jul-2018 19:00,12.9,
02-Jul-2018 20:00,23.5,
02-Jul-2018 21:00,28.9,
02-Jul-2018 22:00,45.7,
02-Jul-2018 23:00,32.1,
03-Jul-2018 00:00,29.3,
03-Jul-2018 01:00,29.6,
03-Jul-2018 02:00,40.2,
03-Jul-2018 03:00,33.4,
03-Jul-2018 04:00,33.4,
03-Jul-2018 05:00,36.4,
03-Jul-2018 06:00,38,
03-Jul-2018 07:00,32.7,
03-Jul-2018 08:00,31.3,
03-Jul-2018 09:00,33.7,
03-Jul-2018 10:00,24.7,
03-Jul-2018 11:00,25.3,
03-Jul-2018 12:00,26.2,
03-Jul-2018 13:00,17.1,
03-Jul-2018 14:00,31.5,
03-Jul-2018 15:00,15.7,
03-Jul-2018 16:00,40.4,
03-Jul-2018 17:00,46.2,
03-Jul-2018 18:00,33.4,
03-Jul-2018 19:00,23.9,
03-Jul-2018 20:00,27.2,
03-Jul-2018 21:00,46.8,
03-Jul-2018 22:00,33.3,
03-Jul-2018 23:00,28.7,
04-Jul-2018 00:00,28.8,
04-Jul-2018 01:00,29.7,
04-Jul-2018 02:00,28.9,
04-Jul-2018 03:00,40.5,
04-Jul-2018 04:00,38.3,
04-Jul-2018 05:00,34.7,
04-Jul-2018 06:00,,BA
04-Jul-2018 07:00,,BA
04-Jul-2018 08:00,46,
04-Jul-2018 09:00,37.8,
04-Jul-2018 10:00,34.7,
04-Jul-2018 11:00,29.9,
04-Jul-2018 12:00,40.3,
04-Jul-2018 13:00,22.7,
04-Jul-2018 14:00,18.9,
04-Jul-2018 15:00,29.3,
04-Jul-2018 16:00,41.4,
04-Jul-2018 17:00,50.6,
04-Jul-2018 18:00,24.9,
04-Jul-2018 19:00,22.8,
04-Jul-2018 20:00,30.3,
04-Jul-2018 21:00,24.5,
04-Jul-2018 22:00,20.3,
04-Jul-2018 23:00,25.6,
05-Jul-2018 00:00,25.1,
05-Jul-2018 01:00,29.6,
05-Jul-2018 02:00,30.9,
05-Jul-2018 03:00,30.1,
05-Jul-2018 04:00,29.3,
05-Jul-2018 05:00,30.5,
05-Jul-2018 06:00,28.5,
05-Jul-2018 07:00,24.3,
05-Jul-2018 08:00,21.8,
05-Jul-2018 09:00,17.2,
05-Jul-2018 10:00,16.1,
05-Jul-2018 11:00,14.9,
05-Jul-2018 12:00,11.1,
05-Jul-2018 13:00,9.6,
05-Jul-2018 14:00,16.5,
05-Jul-2018 15:00,9,
05-Jul-2018 16:00,8.7,
05-Jul-2018 17:00,7.4,
05-Jul-2018 18:00,17.6,
05-Jul-2018 19:00,13,
05-Jul-2018 20:00,14.8,
05-Jul-2018 21:00,16.8,
05-Jul-2018 22:00,18.6,
05-Jul-2018 23:00,15.2,
06-Jul-2018 00:00,17.6,
06-Jul-2018 01:00,21.2,
06-Jul-2018 02:00,15.1,
06-Jul-2018 03:00,15.9,
06-Jul-2018 04:00,18.4,
06-Jul-2018 05:00,22.6,
06-Jul-2018 06:00,20.7,
06-Jul-2018 07:00,23.4,
06-Jul-2018 08:00,15.7,
06-Jul-2018 09:00,11.2,
06-Jul-2018 10:00,7.4,
06-Jul-2018 11:00,10.7,
06-Jul-2018 12:00,15.3,
06-Jul-2018 13:00,19.2,
06-Jul-2018 14:00,20.1,
06-Jul-2018 15:00,21.8,
06-Jul-2018 16:00,28.7,
06-Jul-2018 17:00,29.2,
06-Jul-2018 18:00,40.3,
06-Jul-2018 19:00,25.5,
06-Jul-2018 20:00,31.8,
06-Jul-2018 21:00,32,
06-Jul-2018 22:00,26.1,
06-Jul-2018 23:00,39.1,
07-Jul-2018 00:00,38.8,
07-Jul-2018 01:00,42.4,
07-Jul-2018 02:00,43.1,
07-Jul-2018 03:00,43.3,
07-Jul-2018 04:00,47.4,
07-Jul-2018 05:00,37.8,
07-Jul-2018 06:00,27.4,
07-Jul-2018 07:00,22.4,
07-Jul-2018 08:00,19.6,
07-Jul-2018 09:00,30,
07-Jul-2018 10:00,36.6,
07-Jul-2018 11:00,42,
07-Jul-2018 12:00,33.7,
07-Jul-2018 13:00,43.3,
07-Jul-2018 14:00,31.5,
07-Jul-2018 15:00,30.4,
07-Jul-2018 16:00,50.5,
07-Jul-2018 17:00,36.9,
07-Jul-2018 18:00,37,
07-Jul-2018 19:00,35.9,
07-Jul-2018 20:00,34.2,
07-Jul-2018 21:00,27.6,
07-Jul-2018 22:00,28,
07-Jul-2018 23:00,37.1,
08-Jul-2018 00:00,43,
08-Jul-2018 01:00,42.8,
08-Jul-2018 02:00,44.9,
08-Jul-2018 03:00,41.7,
08-Jul-2018 04:00,49.9,
08-Jul-2018 05:00,39.5,
08-Jul-2018 06:00,39.2,
08-Jul-2018 07:00,37.6,
08-Jul-2018 08:00,35.7,
08-Jul-2018 09:00,30.8,
08-Jul-2018 10:00,34.6,
08-Jul-2018 11:00,36.9,
08-Jul-2018 12:00,39.5,
08-Jul-2018 13:00,37.1,
08-Jul-2018 14:00,51.6,
08-Jul-2018 15:00,35.3,
08-Jul-2018 16:00,25,
08-Jul-2018 17:00,37.1,
08-Jul-2018 18:00,26.9,
08-Jul-2018 19:00,25.4,
08-Jul-2018 20:00,30.3,
08-Jul-2018 21:00,34.3,
08-Jul-2018 22:00,32.8,
08-Jul-2018 23:00,37,
09-Jul-2018 00:00,36.7,
09-Jul-2018 01:00,32.2,
09-Jul-2018 02:00,29.2,
09-Jul-2018 03:00,28.8,
09-Jul-2018 04:00,21.7,
09-Jul-2018 05:00,21.3,
09-Jul-2018 06:00,24.2,
09-Jul-2018 07:00,32.8,
09-Jul-2018 08:00,30.9,
09-Jul-2018 09:00,27.3,
09-Jul-2018 10:00,29.7,
09-Jul-2018 11:00,32.5,
09-Jul-2018 12:00,30.2,
09-Jul-2018 13:00,28.2,
09-Jul-2018 14:00,30.5,
09-Jul-2018 15:00,27.5,
09-Jul-2018 16:00,28.4,
09-Jul-2018 17:00,25.9,
09-Jul-2018 18:00,27.1,
09-Jul-2018 19:00,25.5,
09-Jul-2018 20:00,48.8,
09-Jul-2018 21:00,31.9,
09-Jul-2018 22:00,64.2,
09-Jul-2018 23:00,34.7,
10-Jul-2018 00:00,37.2,
10-Jul-2018 01:00,64.3,
10-Jul-2018 02:00,37.2,
10-Jul-2018 03:00,30,
10-Jul-2018 04:00,36.5,
10-Jul-2018 05:00,29.3,
10-Jul-2018 06:00,50,
10-Jul-2018 07:00,73.4,
10-Jul-2018 08:00,86.1,
10-Jul-2018 09:00,104.3,
10-Jul-2018 10:00,90.8,
10-Jul-2018 11:00,82.8,
10-Jul-2018 12:00,81.3,
10-Jul-2018 13:00,68.6,
10-Jul-2018 14:00,47.1,
10-Jul-2018 15:00,29.5,
10-Jul-2018 16:00,53.7,
10-Jul-2018 17:00,80.3,
10-Jul-2018 18:00,68.4,
10-Jul-2018 19:00,45.8,
10-Jul-2018 20:00,47.5,
10-Jul-2018 21:00,50.6,
10-Jul-2018 22:00,57.6,
10-Jul-2018 23:00,121.1,
11-Jul-2018 00:00,99.9,
11-Jul-2018 01:00,27.2,
11-Jul-2018 02:00,19,
11-Jul-2018 03:00,23.8,
11-Jul-2018 04:00,33.3,
11-Jul-2018 05:00,26.9,
11-Jul-2018 06:00,32.2,
11-Jul-2018 07:00,37.5,
11-Jul-2018 08:00,42.3,
11-Jul-2018 09:00,50.6,
11-Jul-2018 10:00,45.5,
11-Jul-2018 11:00,45.5,
11-Jul-2018 12:00,41.2,
11-Jul-2018 13:00,36.7,
11-Jul-2018 14:00,37.6,
11-Jul-2018 15:00,87.7,
11-Jul-2018 16:00,100,
11-Jul-2018 17:00,27,
11-Jul-2018 18:00,21.3,
11-Jul-2018 19:00,24.9,
11-Jul-2018 20:00,35.7,
11-Jul-2018 21:00,31.2,
11-Jul-2018 22:00,30.8,
11-Jul-2018 23:00,33.3,
12-Jul-2018 00:00,36,
12-Jul-2018 01:00,31.8,
12-Jul-2018 02:00,33.3,
12-Jul-2018 03:00,34.1,
12-Jul-2018 04:00,37,
12-Jul-2018 05:00,44.4,
12-Jul-2018 06:00,37.3,
12-Jul-2018 07:00,31.5,
12-Jul-2018 08:00,33.5,
12-Jul-2018 09:00,42.4,
12-Jul-2018 10:00,41,
12-Jul-2018 11:00,38.1,
12-Jul-2018 12:00,42.2,
12-Jul-2018 13:00,35.5,
12-Jul-2018 14:00,26.6,
12-Jul-2018 15:00,39.2,
12-Jul-2018 16:00,34,
12-Jul-2018 17:00,57.8,
12-Jul-2018 18:00,125.8,
12-Jul-2018 19:00,43.7,
12-Jul-2018 20:00,14.8,
12-Jul-2018 21:00,10.8,
12-Jul-2018 22:00,4.7,
12-Jul-2018 23:00,8,
13-Jul-2018 00:00,9.1,
13-Jul-2018 01:00,8.5,
13-Jul-2018 02:00,6.7,
13-Jul-2018 03:00,9.3,
13-Jul-2018 04:00,9.8,
13-Jul-2018 05:00,11.4,
13-Jul-2018 06:00,9,
13-Jul-2018 07:00,10,
13-Jul-2018 08:00,6.2,
13-Jul-2018 09:00,7.3,
13-Jul-2018 10:00,12.2,
13-Jul-2018 11:00,16.4,
13-Jul-2018 12:00,14.6,
13-Jul-2018 13:00,11.2,
13-Jul-2018 14:00,16.8,
13-Jul-2018 15:00,8.1,
13-Jul-2018 16:00,16.8,
13-Jul-2018 17:00,20.2,
13-Jul-2018 18:00,18.7,
13-Jul-2018 19:00,21.6,
13-Jul-2018 20:00,35.2,
13-Jul-2018 21:00,32.7,
13-Jul-2018 22:00,33.7,
13-Jul-2018 23:00,33.1,
14-Jul-2018 00:00,32.9,
14-Jul-2018 01:00,33.9,
14-Jul-2018 02:00,31.5,
14-Jul-2018 03:00,27.5,
14-Jul-2018 04:00,24.2,
14-Jul-2018 05:00,18.6,
14-Jul-2018 06:00,21.7,
14-Jul-2018 07:00,13,
14-Jul-2018 08:00,11.7,
14-Jul-2018 09:00,9.5,
14-Jul-2018 10:00,15.1,
14-Jul-2018 11:00,24.4,
14-Jul-2018 12:00,20.7,
14-Jul-2018 13:00,20.1,
14-Jul-2018 14:00,20.6,
14-Jul-2018 15:00,23.3,
14-Jul-2018 16:00,16.9,
14-Jul-2018 17:00,19.2,
14-Jul-2018 18:00,21.4,
14-Jul-2018 19:00,29.6,
14-Jul-2018 20:00,32,
14-Jul-2018 21:00,24.2,
14-Jul-2018 22:00,22.7,
14-Jul-2018 23:00,20.9,
15-Jul-2018 00:00,25.6,
15-Jul-2018 01:00,22,
15-Jul-2018 02:00,26.3,
15-Jul-2018 03:00,29.6,
15-Jul-2018 04:00,32.4,
15-Jul-2018 05:00,26.3,
15-Jul-2018 06:00,27.1,
15-Jul-2018 07:00,31,
15-Jul-2018 08:00,28.4,
15-Jul-2018 09:00,31.5,
15-Jul-2018 10:00,36.6,
15-Jul-2018 11:00,29.1,
15-Jul-2018 12:00,31.5,
15-Jul-2018 13:00,24.8,
15-Jul-2018 14:00,21.2,
15-Jul-2018 15:00,23.7,
15-Jul-2018 16:00,27.4,
15-Jul-2018 17:00,38.4,
15-Jul-2018 18:00,25.9,
15-Jul-2018 19:00,18.7,
15-Jul-2018 20:00,21,
15-Jul-2018 21:00,24,
15-Jul-2018 22:00,26.6,
15-Jul-2018 23:00,30.2,
16-Jul-2018 00:00,25.3,
16-Jul-2018 01:00,27.7,
16-Jul-2018 02:00,30.3,
16-Jul-2018 03:00,31.7,
16-Jul-2018 04:00,30.8,
16-Jul-2018 05:00,36.7,
16-Jul-2018 06:00,25.6,
16-Jul-2018 07:00,24.3,
16-Jul-2018 08:00,20.9,
16-Jul-2018 09:00,24.5,
16-Jul-2018 10:00,24.6,
16-Jul-2018 11:00,21.2,
16-Jul-2018 12:00,25.8,
16-Jul-2018 13:00,20.3,
16-Jul-2018 14:00,28.7,
16-Jul-2018 15:00,23.5,
16-Jul-2018 16:00,19.2,
16-Jul-2018 17:00,19.5,
16-Jul-2018 18:00,18.4,
16-Jul-2018 19:00,22.1,
16-Jul-2018 20:00,37.6,
16-Jul-2018 21:00,28.8,
16-Jul-2018 22:00,31,
16-Jul-2018 23:00,26.3,
17-Jul-2018 00:00,26.3,
17-Jul-2018 01:00,39.2,
17-Jul-2018 02:00,32.6,
17-Jul-2018 03:00,30.9,
17-Jul-2018 04:00,30.1,
17-Jul-2018 05:00,47.4,
17-Jul-2018 06:00,32.3,
17-Jul-2018 07:00,30.3,
17-Jul-2018 08:00,29.1,
17-Jul-2018 09:00,25.8,
17-Jul-2018 10:00,27.3,
17-Jul-2018 11:00,32.7,
17-Jul-2018 12:00,20.2,
17-Jul-2018 13:00,17.7,
17-Jul-2018 14:00,22.2,
17-Jul-2018 15:00,23.3,
17-Jul-2018 16:00,19.3,
17-Jul-2018 17:00,20.3,
17-Jul-2018 18:00,24.5,
17-Jul-2018 19:00,22.8,
17-Jul-2018 20:00,27.3,
17-Jul-2018 21:00,29,
17-Jul-2018 22:00,29.8,
17-Jul-2018 23:00,47.8,
18-Jul-2018 00:00,32,
18-Jul-2018 01:00,33,
18-Jul-2018 02:00,34.3,
18-Jul-2018 03:00,31.3,
18-Jul-2018 04:00,34,
18-Jul-2018 05:00,34,
18-Jul-2018 06:00,37.4,
18-Jul-2018 07:00,34.5,
18-Jul-2018 08:00,33.9,
18-Jul-2018 09:00,33.9,
18-Jul-2018 10:00,47.1,
18-Jul-2018 11:00,35.6,
18-Jul-2018 12:00,32.7,
18-Jul-2018 13:00,32,
18-Jul-2018 14:00,35.3,
18-Jul-2018 15:00,21.9,
18-Jul-2018 16:00,20.2,
18-Jul-2018 17:00,21.9,
18-Jul-2018 18:00,27.5,
18-Jul-2018 19:00,29,
18-Jul-2018 20:00,30.8,
18-Jul-2018 21:00,27.5,
18-Jul-2018 22:00,30.2,
18-Jul-2018 23:00,34.7,
19-Jul-2018 00:00,31.3,
19-Jul-2018 01:00,38,
19-Jul-2018 02:00,48.7,
19-Jul-2018 03:00,37.2,
19-Jul-2018 04:00,44.5,
19-Jul-2018 05:00,,AX
19-Jul-2018 06:00,44.6,
19-Jul-2018 07:00,34.6,
19-Jul-2018 08:00,34.9,
19-Jul-2018 09:00,40.9,
19-Jul-2018 10:00,40.3,
19-Jul-2018 11:00,21.8,
19-Jul-2018 12:00,23.4,
19-Jul-2018 13:00,23.6,
19-Jul-2018 14:00,17.8,
19-Jul-2018 15:00,14.4,
19-Jul-2018 16:00,18.1,
19-Jul-2018 17:00,16,
19-Jul-2018 18:00,15.3,
19-Jul-2018 19:00,25.1,
19-Jul-2018 20:00,40,
19-Jul-2018 21:00,28,
19-Jul-2018 22:00,24.6,
19-Jul-2018 23:00,23.6,
20-Jul-2018 00:00,18.5,
20-Jul-2018 01:00,24.1,
20-Jul-2018 02:00,23.5,
20-Jul-2018 03:00,30.1,
20-Jul-2018 04:00,32.7,
20-Jul-2018 05:00,49.1,
20-Jul-2018 06:00,67.1,
20-Jul-2018 07:00,38.8,
20-Jul-2018 08:00,52.9,
20-Jul-2018 09:00,41.4,
20-Jul-2018 10:00,32.2,
20-Jul-2018 11:00,32.9,
20-Jul-2018 12:00,34.5,
20-Jul-2018 13:00,33.1,
20-Jul-2018 14:00,16.3,
20-Jul-2018 15:00,24.8,
20-Jul-2018 16:00,25,
20-Jul-2018 17:00,90.5,
20-Jul-2018 18:00,69.9,
20-Jul-2018 19:00,20.8,
20-Jul-2018 20:00,31.3,
20-Jul-2018 21:00,49.7,
20-Jul-2018 22:00,27.1,
20-Jul-2018 23:00,15.8,
21-Jul-2018 00:00,15.7,
21-Jul-2018 01:00,14.9,
21-Jul-2018 02:00,15.9,
21-Jul-2018 03:00,15.9,
21-Jul-2018 04:00,14.9,
21-Jul-2018 05:00,13.6,
21-Jul-2018 06:00,15.4,
21-Jul-2018 07:00,14.7,
21-Jul-2018 08:00,15.2,
21-Jul-2018 09:00,15,
21-Jul-2018 10:00,19,
21-Jul-2018 11:00,23.2,
21-Jul-2018 12:00,35.6,
21-Jul-2018 13:00,32.4,
21-Jul-2018 14:00,21.9,
21-Jul-2018 15:00,17.6,
21-Jul-2018 16:00,22.1,
21-Jul-2018 17:00,16.1,
21-Jul-2018 18:00,14,
21-Jul-2018 19:00,36.8,
21-Jul-2018 20:00,23,
21-Jul-2018 21:00,30.2,
21-Jul-2018 22:00,24.8,
21-Jul-2018 23:00,29.1,
22-Jul-2018 00:00,32.6,
22-Jul-2018 01:00,29.8,
22-Jul-2018 02:00,33.3,
22-Jul-2018 03:00,23.3,
22-Jul-2018 04:00,25.7,
22-Jul-2018 05:00,24.2,
22-Jul-2018 06:00,25.9,
22-Jul-2018 07:00,25.2,
22-Jul-2018 08:00,20.6,
22-Jul-2018 09:00,21.7,
22-Jul-2018 10:00,24.3,
22-Jul-2018 11:00,16.7,
22-Jul-2018 12:00,16.4,
22-Jul-2018 13:00,19.2,
22-Jul-2018 14:00,24.1,
22-Jul-2018 15:00,16.2,
22-Jul-2018 16:00,16.7,
22-Jul-2018 17:00,19.4,
22-Jul-2018 18:00,102.5,
22-Jul-2018 19:00,11.6,
22-Jul-2018 20:00,14,
22-Jul-2018 21:00,9.4,
22-Jul-2018 22:00,11.8,
22-Jul-2018 23:00,13.3,
23-Jul-2018 00:00,9,
23-Jul-2018 01:00,11.5,
23-Jul-2018 02:00,14.5,
23-Jul-2018 03:00,15.8,
23-Jul-2018 04:00,16.1,
23-Jul-2018 05:00,14.5,
23-Jul-2018 06:00,16.9,
23-Jul-2018 07:00,16,
23-Jul-2018 08:00,18.8,
23-Jul-2018 09:00,14.6,
23-Jul-2018 10:00,11.7,
23-Jul-2018 11:00,11.5,
23-Jul-2018 12:00,11.8,
23-Jul-2018 13:00,8.2,
23-Jul-2018 14:00,12.7,
23-Jul-2018 15:00,10.4,
23-Jul-2018 16:00,11.9,
23-Jul-2018 17:00,19.7,
23-Jul-2018 18:00,38.1,
23-Jul-2018 19:00,22.7,
23-Jul-2018 20:00,16.7,
23-Jul-2018 21:00,16.2,
23-Jul-2018 22:00,21.7,
23-Jul-2018 23:00,11.6,
24-Jul-2018 00:00,12.3,
24-Jul-2018 01:00,16.8,
24-Jul-2018 02:00,12.6,
24-Jul-2018 03:00,16,
24-Jul-2018 04:00,17.4,
24-Jul-2018 05:00,13.3,
24-Jul-2018 06:00,17.7,
24-Jul-2018 07:00,16.8,
24-Jul-2018 08:00,13.9,
24-Jul-2018 09:00,17.6,
24-Jul-2018 10:00,11.6,
24-Jul-2018 11:00,8.4,
24-Jul-2018 12:00,14.5,
24-Jul-2018 13:00,19.4,
24-Jul-2018 14:00,16.5,
24-Jul-2018 15:00,19.6,
24-Jul-2018 16:00,94.1,
24-Jul-2018 17:00,34.1,
24-Jul-2018 18:00,11,
24-Jul-2018 19:00,4.9,
24-Jul-2018 20:00,15.3,
24-Jul-2018 21:00,13,
24-Jul-2018 22:00,19.9,
24-Jul-2018 23:00,22.9,
25-Jul-2018 00:00,22.9,
25-Jul-2018 01:00,19.5,
25-Jul-2018 02:00,20.6,
25-Jul-2018 03:00,21.1,
25-Jul-2018 04:00,23.7,
25-Jul-2018 05:00,24.7,
25-Jul-2018 06:00,25.7,
25-Jul-2018 07:00,28.7,
25-Jul-2018 08:00,28.9,
25-Jul-2018 09:00,22.8,
25-Jul-2018 10:00,14,
25-Jul-2018 11:00,17.1,
25-Jul-2018 12:00,17.2,
25-Jul-2018 13:00,18.9,
25-Jul-2018 14:00,13.7,
25-Jul-2018 15:00,18.4,
25-Jul-2018 16:00,16.3,
25-Jul-2018 17:00,25.7,
25-Jul-2018 18:00,18.9,
25-Jul-2018 19:00,19.5,
25-Jul-2018 20:00,21.1,
25-Jul-2018 21:00,21.3,
25-Jul-2018 22:00,26.6,
25-Jul-2018 23:00,21.4,
26-Jul-2018 00:00,21.4,
26-Jul-2018 01:00,23.5,
26-Jul-2018 02:00,22.3,
26-Jul-2018 03:00,23.5,
26-Jul-2018 04:00,22.8,
26-Jul-2018 05:00,23.5,
26-Jul-2018 06:00,29.3,
26-Jul-2018 07:00,22.1,
26-Jul-2018 08:00,22.5,
26-Jul-2018 09:00,24.3,
26-Jul-2018 10:00,19.5,
26-Jul-2018 11:00,12.8,
26-Jul-2018 12:00,15.7,
26-Jul-2018 13:00,20.2,
26-Jul-2018 14:00,20.1,
26-Jul-2018 15:00,16.3,
26-Jul-2018 16:00,26.8,
26-Jul-2018 17:00,10.8,
26-Jul-2018 18:00,15.6,
26-Jul-2018 19:00,12.9,
26-Jul-2018 20:00,14.7,
26-Jul-2018 21:00,16.5,
26-Jul-2018 22:00,18.1,
26-Jul-2018 23:00,16,
27-Jul-2018 00:00,14.8,
27-Jul-2018 01:00,19.4,
27-Jul-2018 02:00,17.1,
27-Jul-2018 03:00,19.1,
27-Jul-2018 04:00,19.8,
27-Jul-2018 05:00,20.2,
27-Jul-2018 06:00,23.7,
27-Jul-2018 07:00,22,
27-Jul-2018 08:00,23.4,
27-Jul-2018 09:00,24.3,
27-Jul-2018 10:00,17.8,
27-Jul-2018 11:00,17.4,
27-Jul-2018 12:00,18.7,
27-Jul-2018 13:00,22.9,
27-Jul-2018 14:00,27.7,
27-Jul-2018 15:00,17.7,
27-Jul-2018 16:00,13.8,
27-Jul-2018 17:00,40.6,
27-Jul-2018 18:00,40.5,
27-Jul-2018 19:00,26.7,
27-Jul-2018 20:00,30.4,
27-Jul-2018 21:00,35.1,
27-Jul-2018 22:00,34.4,
27-Jul-2018 23:00,35.2,
28-Jul-2018 00:00,33.9,
28-Jul-2018 01:00,34.7,
28-Jul-2018 02:00,35.7,
28-Jul-2018 03:00,34.2,
28-Jul-2018 04:00,35.3,
28-Jul-2018 05:00,36.9,
28-Jul-2018 06:00,43.1,
28-Jul-2018 07:00,38,
28-Jul-2018 08:00,41.5,
28-Jul-2018 09:00,39.6,
28-Jul-2018 10:00,40.6,
28-Jul-2018 11:00,30.7,
28-Jul-2018 12:00,31.3,
28-Jul-2018 13:00,33.4,
28-Jul-2018 14:00,30.2,
28-Jul-2018 15:00,36.1,
28-Jul-2018 16:00,43.7,
28-Jul-2018 17:00,43.5,
28-Jul-2018 18:00,31.3,
28-Jul-2018 19:00,23.9,
28-Jul-2018 20:00,28.7,
28-Jul-2018 21:00,45.7,
28-Jul-2018 22:00,44.2,
28-Jul-2018 23:00,38.2,
29-Jul-2018 00:00,33.4,
29-Jul-2018 01:00,36.5,
29-Jul-2018 02:00,35.8,
29-Jul-2018 03:00,36.7,
29-Jul-2018 04:00,35.7,
29-Jul-2018 05:00,38.6,
29-Jul-2018 06:00,39.9,
29-Jul-2018 07:00,33.7,
29-Jul-2018 08:00,31.9,
29-Jul-2018 09:00,34.2,
29-Jul-2018 10:00,41.6,
29-Jul-2018 11:00,32.4,
29-Jul-2018 12:00,26.4,
29-Jul-2018 13:00,36.7,
29-Jul-2018 14:00,31.1,
29-Jul-2018 15:00,24.7,
29-Jul-2018 16:00,25.5,
29-Jul-2018 17:00,29.6,
29-Jul-2018 18:00,49.8,
29-Jul-2018 19:00,61.1,
29-Jul-2018 20:00,67.5,
29-Jul-2018 21:00,60.6,
29-Jul-2018 22:00,58.6,
29-Jul-2018 23:00,51.2,
30-Jul-2018 00:00,50.1,
30-Jul-2018 01:00,52.4,
30-Jul-2018 02:00,45.6,
30-Jul-2018 03:00,48.8,
30-Jul-2018 04:00,50.9,
30-Jul-2018 05:00,51.9,
30-Jul-2018 06:00,44.5,
30-Jul-2018 07:00,43.3,
30-Jul-2018 08:00,39.7,
30-Jul-2018 09:00,33.1,
30-Jul-2018 10:00,42.1,
30-Jul-2018 11:00,45.7,
30-Jul-2018 12:00,39.9,
30-Jul-2018 13:00,47.7,
30-Jul-2018 14:00,22.6,
30-Jul-2018 15:00,23.5,
30-Jul-2018 16:00,17.4,
30-Jul-2018 17:00,19.9,
30-Jul-2018 18:00,25.7,
30-Jul-2018 19:00,25.1,
30-Jul-2018 20:00,26.4,
30-Jul-2018 21:00,24.9,
30-Jul-2018 22:00,27.6,
30-Jul-2018 23:00,26,
31-Jul-2018 00:00,25.4,
31-Jul-2018 01:00,26.7,
31-Jul-2018 02:00,26.9,
31-Jul-2018 03:00,35.5,
31-Jul-2018 04:00,38.6,
31-Jul-2018 05:00,45.5,
31-Jul-2018 06:00,,AZ
31-Jul-2018 07:00,,AT
31-Jul-2018 08:00,,BA
31-Jul-2018 09:00,57.7,
31-Jul-2018 10:00,52.5,
31-Jul-2018 11:00,50,
31-Jul-2018 12:00,42.3,
31-Jul-2018 13:00,40.8,
31-Jul-2018 14:00,33.4,
31-Jul-2018 15:00,48.3,
31-Jul-2018 16:00,29.2,
31-Jul-2018 17:00,27,
31-Jul-2018 18:00,25.2,
31-Jul-2018 19:00,31.5,
31-Jul-2018 20:00,31.5,
31-Jul-2018 21:00,28,
31-Jul-2018 22:00,29.4,
31-Jul-2018 23:00,31,
